| time (UTC) | temp F | wind direction | speed MPH | gust MPH | rain 1hr in | rain 24hr in | rain mn in | humidity % | barometer mb |
| 20260506212353 | 62 | 5 | 3.0 | 9.0 | 0.00 | 0.00 | 0.00 | 77 | 1011.3 |
| 20260506211848 | 62 | 0 | 6.0 | 10.0 | 0.00 | 0.00 | 0.00 | 78 | 1011.1 |
| 20260506211345 | 62 | 6 | 2.0 | 7.0 | 0.00 | 0.00 | 0.00 | 77 | 1011.2 |
| 20260506210842 | 62 | 302 | 4.0 | 9.0 | 0.00 | 0.00 | 0.00 | 77 | 1011.2 |
| 20260506210339 | 62 | 349 | 3.0 | 11.0 | 0.00 | 0.00 | 0.00 | 78 | 1011.1 |
| 20260506205836 | 62 | 26 | 4.0 | 10.0 | 0.00 | 0.00 | 0.00 | 78 | 1011.0 |
| 20260506205332 | 62 | 1 | 5.0 | 12.0 | 0.00 | 0.00 | 0.00 | 77 | 1011.1 |
| 20260506204829 | 62 | 345 | 4.0 | 10.0 | 0.00 | 0.00 | 0.00 | 77 | 1011.3 |
| 20260506204326 | 62 | 14 | 4.0 | 10.0 | 0.00 | 0.00 | 0.00 | 78 | 1011.2 |
| 20260506203824 | 62 | 13 | 3.0 | 11.0 | 0.00 | 0.00 | 0.00 | 78 | 1011.2 |
| 20260506203321 | 62 | 19 | 7.0 | 8.0 | 0.00 | 0.00 | 0.00 | 77 | 1011.4 |
| 20260506202817 | 61 | 3 | 4.0 | 9.0 | 0.00 | 0.00 | 0.00 | 79 | 1011.2 |
| 20260506202315 | 62 | 13 | 3.0 | 13.0 | 0.00 | 0.00 | 0.00 | 79 | 1011.1 |
| 20260506201811 | 61 | 334 | 3.0 | 13.0 | 0.00 | 0.00 | 0.00 | 78 | 1011.7 |
| 20260506201309 | 61 | 325 | 3.0 | 12.0 | 0.00 | 0.00 | 0.00 | 80 | 1011.9 |
| 20260506200805 | 61 | 5 | 8.0 | 9.0 | 0.00 | 0.00 | 0.00 | 80 | 1011.8 |
| 20260506200301 | 60 | 22 | 6.0 | 13.0 | 0.00 | 0.00 | 0.00 | 81 | 1011.5 |
| 20260506195758 | 60 | 26 | 5.0 | 8.0 | 0.00 | 0.00 | 0.00 | 82 | 1011.8 |
| 20260506195255 | 59 | 10 | 3.0 | 12.0 | 0.00 | 0.00 | 0.00 | 82 | 1012.0 |
| 20260506194752 | 59 | 7 | 6.0 | 14.0 | 0.00 | 0.00 | 0.00 | 81 | 1012.0 |
| 20260506194248 | 59 | 346 | 1.0 | 7.0 | 0.00 | 0.00 | 0.00 | 83 | 1012.4 |
| 20260506193746 | 59 | 11 | 5.0 | 10.0 | 0.00 | 0.00 | 0.00 | 83 | 1012.2 |
| 20260506193243 | 59 | 347 | 4.0 | 8.0 | 0.00 | 0.00 | 0.00 | 83 | 1012.1 |
| 20260506192739 | 58 | 342 | 4.0 | 6.0 | 0.00 | 0.00 | 0.00 | 85 | 1012.1 |
| 20260506192236 | 58 | 333 | 2.0 | 10.0 | 0.00 | 0.00 | 0.00 | 84 | 1012.2 |
| 20260506191733 | 58 | 346 | 1.0 | 7.0 | 0.00 | 0.00 | 0.00 | 85 | 1012.1 |
| 20260506191229 | 57 | 344 | 4.0 | 9.0 | 0.00 | 0.00 | 0.00 | 85 | 1012.3 |
| 20260506190726 | 58 | 7 | 6.0 | 6.0 | 0.00 | 0.00 | 0.00 | 86 | 1012.3 |
| 20260506190223 | 57 | 359 | 5.0 | 9.0 | 0.00 | 0.00 | 0.00 | 85 | 1012.4 |
| 20260506185720 | 57 | 319 | 2.0 | 9.0 | 0.00 | 0.00 | 0.00 | 86 | 1012.6 |
| 20260506185216 | 57 | 356 | 4.0 | 8.0 | 0.00 | 0.00 | 0.00 | 86 | 1012.5 |
| 20260506184714 | 57 | 17 | 3.0 | 6.0 | 0.00 | 0.00 | 0.00 | 86 | 1012.7 |
| 20260506184211 | 57 | 28 | 2.0 | 7.0 | 0.00 | 0.00 | 0.00 | 86 | 1012.8 |
| 20260506183708 | 57 | 348 | 2.0 | 8.0 | 0.00 | 0.00 | 0.00 | 86 | 1012.8 |
| 20260506183203 | 57 | 343 | 8.0 | 11.0 | 0.00 | 0.00 | 0.00 | 86 | 1012.7 |
| 20260506182701 | 57 | 310 | 3.0 | 6.0 | 0.00 | 0.00 | 0.00 | 87 | 1012.8 |
| 20260506182158 | 57 | 7 | 4.0 | 8.0 | 0.00 | 0.00 | 0.00 | 88 | 1013.0 |
| 20260506181655 | 57 | 10 | 2.0 | 7.0 | 0.00 | 0.00 | 0.00 | 87 | 1013.0 |
| 20260506181152 | 57 | 352 | 2.0 | 7.0 | 0.00 | 0.00 | 0.00 | 88 | 1013.0 |
| 20260506180650 | 57 | 25 | 5.0 | 8.0 | 0.00 | 0.00 | 0.00 | 88 | 1012.8 |
| 20260506180146 | 56 | 23 | 5.0 | 13.0 | 0.00 | 0.00 | 0.00 | 88 | 1012.6 |
| 20260506175642 | 57 | 323 | 4.0 | 13.0 | 0.00 | 0.00 | 0.00 | 88 | 1012.7 |
| 20260506175139 | 57 | 24 | 5.0 | 9.0 | 0.00 | 0.00 | 0.00 | 87 | 1012.0 |
| 20260506174632 | 57 | 4 | 7.0 | 17.0 | 0.00 | 0.00 | 0.00 | 88 | 1011.1 |
| 20260506174128 | 57 | 11 | 7.0 | 15.0 | 0.00 | 0.00 | 0.00 | 87 | 1010.8 |
| 20260506173626 | 57 | 358 | 5.0 | 17.0 | 0.00 | 0.00 | 0.00 | 88 | 1010.7 |
| 20260506173122 | 57 | 15 | 8.0 | 17.0 | 0.00 | 0.00 | 0.00 | 88 | 1010.5 |
| 20260506172620 | 57 | 12 | 5.0 | 20.0 | 0.00 | 0.00 | 0.00 | 87 | 1011.1 |
| 20260506172116 | 57 | 9 | 8.0 | 22.0 | 0.00 | 0.00 | 0.00 | 88 | 1011.3 |
| 20260506171613 | 57 | 359 | 5.0 | 13.0 | 0.00 | 0.00 | 0.00 | 87 | 1011.2 |
| 20260506171110 | 57 | 6 | 8.0 | 18.0 | 0.00 | 0.00 | 0.00 | 87 | 1011.4 |
| 20260506170607 | 57 | 23 | 13.0 | 20.0 | 0.00 | 0.00 | 0.00 | 87 | 1011.5 |
| 20260506170100 | 57 | 10 | 5.0 | 14.0 | 0.00 | 0.00 | 0.00 | 88 | 1011.9 |
| 20260506165558 | 56 | 12 | 5.0 | 13.0 | 0.00 | 0.00 | 0.00 | 87 | 1011.9 |
| 20260506165054 | 57 | 25 | 4.0 | 13.0 | 0.00 | 0.00 | 0.00 | 88 | 1011.8 |
| 20260506164551 | 56 | 11 | 4.0 | 9.0 | 0.00 | 0.00 | 0.00 | 88 | 1012.5 |
| 20260506164048 | 56 | 6 | 4.0 | 10.0 | 0.00 | 0.00 | 0.00 | 88 | 1012.7 |
| 20260506163544 | 57 | 359 | 3.0 | 16.0 | 0.00 | 0.00 | 0.00 | 87 | 1012.3 |
| 20260506163039 | 57 | 3 | 5.0 | 11.0 | 0.00 | 0.00 | 0.00 | 88 | 1012.5 |
| 20260506162536 | 56 | 18 | 8.0 | 13.0 | 0.00 | 0.00 | 0.00 | 88 | 1012.1 |
| 20260506162027 | 56 | 27 | 5.0 | 18.0 | 0.00 | 0.00 | 0.00 | 87 | 1011.7 |
| 20260506161525 | 57 | 19 | 15.0 | 16.0 | 0.00 | 0.00 | 0.00 | 87 | 1011.8 |
| 20260506161021 | 57 | 3 | 8.0 | 13.0 | 0.00 | 0.00 | 0.00 | 86 | 1011.8 |
| 20260506160519 | 57 | 20 | 5.0 | 13.0 | 0.00 | 0.00 | 0.00 | 86 | 1011.5 |
| 20260506160016 | 57 | 35 | 5.0 | 23.0 | 0.00 | 0.00 | 0.00 | 86 | 1011.1 |
| 20260506155515 | 57 | 19 | 4.0 | 18.0 | 0.00 | 0.00 | 0.00 | 87 | 1011.5 |
| 20260506153646 | 55 | 29 | 11.0 | 15.0 | 0.00 | 0.00 | 0.00 | 90 | 1011.7 |
| 20260506153143 | 55 | 3 | 6.0 | 9.0 | 0.00 | 0.00 | 0.00 | 90 | 1012.0 |
| 20260506152640 | 55 | 47 | 6.0 | 10.0 | 0.00 | 0.00 | 0.00 | 91 | 1011.9 |
| 20260506152138 | 54 | 8 | 5.0 | 9.0 | 0.02 | 0.00 | 0.00 | 91 | 1012.1 |
| 20260506151636 | 54 | 37 | 7.0 | 11.0 | 0.02 | 0.00 | 0.00 | 91 | 1012.3 |
| 20260506151133 | 54 | 39 | 4.0 | 9.0 | 0.00 | 0.00 | 0.00 | 91 | 1012.4 |
| 20260506150630 | 54 | 13 | 0.0 | 11.0 | 0.00 | 0.00 | 0.00 | 91 | 1012.8 |
| 20260506150127 | 54 | 314 | 8.0 | 12.0 | 0.00 | 0.00 | 0.00 | 90 | 1012.4 |
| 20260506145623 | 54 | 12 | 5.0 | 11.0 | 0.00 | 0.00 | 0.00 | 90 | 1012.7 |
| 20260506145120 | 54 | 7 | 5.0 | 13.0 | 0.00 | 0.00 | 0.00 | 89 | 1012.8 |
| 20260506144618 | 54 | 0 | 4.0 | 12.0 | 0.00 | 0.00 | 0.00 | 87 | 1012.8 |
| 20260506144114 | 54 | 349 | 7.0 | 11.0 | 0.00 | 0.00 | 0.00 | 86 | 1012.5 |
| 20260506143612 | 55 | 310 | 5.0 | 9.0 | 0.00 | 0.00 | 0.00 | 85 | 1014.0 |
| 20260506143110 | 55 | 326 | 4.0 | 9.0 | 0.00 | 0.00 | 0.00 | 86 | 1013.7 |
| 20260506142608 | 55 | 30 | 1.0 | 12.0 | 0.00 | 0.00 | 0.00 | 86 | 1013.8 |
| 20260506142106 | 55 | 322 | 5.0 | 12.0 | 0.00 | 0.00 | 0.00 | 85 | 1013.0 |
| 20260506141603 | 55 | 354 | 5.0 | 7.0 | 0.00 | 0.00 | 0.00 | 85 | 1012.7 |
| 20260506141101 | 55 | 1 | 7.0 | 11.0 | 0.00 | 0.00 | 0.00 | 85 | 1011.9 |
| 20260506140558 | 55 | 357 | 7.0 | 14.0 | 0.00 | 0.00 | 0.00 | 85 | 1011.5 |
| 20260506140056 | 55 | 332 | 4.0 | 15.0 | 0.00 | 0.00 | 0.00 | 84 | 1011.9 |
| 20260506135552 | 56 | 5 | 5.0 | 14.0 | 0.00 | 0.00 | 0.00 | 83 | 1011.7 |
| 20260506135048 | 56 | 354 | 5.0 | 11.0 | 0.00 | 0.00 | 0.00 | 82 | 1011.7 |
| 20260506134545 | 56 | 345 | 6.0 | 11.0 | 0.00 | 0.00 | 0.00 | 81 | 1011.8 |
| 20260506134041 | 56 | 338 | 8.0 | 10.0 | 0.00 | 0.00 | 0.00 | 81 | 1011.9 |
| 20260506133538 | 56 | 330 | 5.0 | 11.0 | 0.00 | 0.00 | 0.00 | 81 | 1011.5 |
| 20260506133035 | 56 | 20 | 11.0 | 15.0 | 0.00 | 0.00 | 0.00 | 80 | 1011.3 |
| 20260506132533 | 56 | 349 | 4.0 | 12.0 | 0.00 | 0.00 | 0.00 | 80 | 1011.5 |
| 20260506132030 | 57 | 0 | 6.0 | 11.0 | 0.00 | 0.00 | 0.00 | 79 | 1011.1 |
| 20260506131527 | 57 | 25 | 8.0 | 18.0 | 0.00 | 0.00 | 0.00 | 79 | 1010.9 |
| 20260506131023 | 57 | 1 | 5.0 | 12.0 | 0.00 | 0.00 | 0.00 | 79 | 1010.8 |
| 20260506130520 | 57 | 8 | 8.0 | 15.0 | 0.00 | 0.00 | 0.00 | 79 | 1010.6 |
| 20260506130018 | 57 | 23 | 10.0 | 15.0 | 0.00 | 0.00 | 0.00 | 80 | 1010.5 |
| 20260506125516 | 57 | 9 | 9.0 | 17.0 | 0.00 | 0.00 | 0.00 | 81 | 1010.5 |
| 20260506125013 | 57 | 348 | 3.0 | 14.0 | 0.00 | 0.00 | 0.00 | 81 | 1010.8 |
| 20260506124511 | 57 | 0 | 6.0 | 11.0 | 0.00 | 0.00 | 0.00 | 81 | 1010.4 |
| 20260506124009 | 57 | 0 | 5.0 | 11.0 | 0.00 | 0.00 | 0.00 | 80 | 1010.6 |
| 20260506123506 | 57 | 331 | 8.0 | 14.0 | 0.00 | 0.00 | 0.00 | 80 | 1010.5 |
| 20260506123004 | 57 | 4 | 6.0 | 13.0 | 0.00 | 0.00 | 0.00 | 80 | 1010.4 |
| 20260506122501 | 57 | 351 | 4.0 | 9.0 | 0.00 | 0.00 | 0.00 | 81 | 1010.2 |
| 20260506121959 | 57 | 13 | 8.0 | 13.0 | 0.00 | 0.00 | 0.00 | 82 | 1010.4 |
| 20260506121456 | 57 | 0 | 6.0 | 17.0 | 0.00 | 0.00 | 0.00 | 81 | 1010.1 |
| 20260506120952 | 57 | 27 | 5.0 | 13.0 | 0.00 | 0.00 | 0.00 | 81 | 1010.0 |
| 20260506120450 | 57 | 10 | 8.0 | 12.0 | 0.00 | 0.00 | 0.00 | 81 | 1010.2 |
| 20260506115947 | 58 | 13 | 5.0 | 15.0 | 0.00 | 0.00 | 0.00 | 81 | 1010.1 |
| 20260506115445 | 58 | 15 | 6.0 | 9.0 | 0.00 | 0.00 | 0.00 | 81 | 1009.8 |
| 20260506114943 | 58 | 357 | 4.0 | 12.0 | 0.00 | 0.00 | 0.00 | 81 | 1010.0 |
| 20260506114440 | 58 | 22 | 2.0 | 11.0 | 0.00 | 0.00 | 0.00 | 81 | 1010.1 |
| 20260506113939 | 58 | 337 | 5.0 | 7.0 | 0.00 | 0.00 | 0.00 | 82 | 1009.8 |
| 20260506113436 | 58 | 7 | 3.0 | 7.0 | 0.00 | 0.00 | 0.00 | 82 | 1009.8 |
| 20260506112932 | 58 | 5 | 8.0 | 16.0 | 0.00 | 0.00 | 0.00 | 82 | 1009.6 |
| 20260506112430 | 58 | 316 | 1.0 | 12.0 | 0.00 | 0.00 | 0.00 | 82 | 1009.6 |
| 20260506111927 | 58 | 1 | 4.0 | 13.0 | 0.00 | 0.00 | 0.00 | 82 | 1009.6 |
| 20260506111425 | 59 | 348 | 8.0 | 14.0 | 0.00 | 0.00 | 0.00 | 82 | 1009.6 |
| 20260506110922 | 59 | 334 | 4.0 | 10.0 | 0.00 | 0.00 | 0.00 | 82 | 1009.4 |
| 20260506110420 | 59 | 0 | 5.0 | 14.0 | 0.00 | 0.00 | 0.00 | 82 | 1009.2 |
| 20260506105916 | 59 | 307 | 5.0 | 12.0 | 0.00 | 0.00 | 0.00 | 82 | 1009.1 |
| 20260506105413 | 59 | 31 | 3.0 | 14.0 | 0.00 | 0.00 | 0.00 | 82 | 1009.3 |
| 20260506104910 | 60 | 0 | 5.0 | 6.0 | 0.00 | 0.00 | 0.00 | 81 | 1008.9 |
| 20260506104408 | 60 | 7 | 4.0 | 7.0 | 0.00 | 0.00 | 0.00 | 81 | 1008.8 |
| 20260506103906 | 60 | 355 | 3.0 | 6.0 | 0.00 | 0.00 | 0.00 | 80 | 1009.1 |
| 20260506103403 | 60 | 320 | 3.0 | 11.0 | 0.00 | 0.00 | 0.00 | 80 | 1008.8 |
| 20260506102900 | 60 | 288 | 2.0 | 8.0 | 0.00 | 0.00 | 0.00 | 81 | 1008.7 |
| 20260506102358 | 60 | 1 | 4.0 | 7.0 | 0.00 | 0.00 | 0.00 | 81 | 1008.7 |
| 20260506101855 | 60 | 359 | 4.0 | 12.0 | 0.00 | 0.00 | 0.00 | 81 | 1008.5 |
| 20260506101351 | 60 | 329 | 3.0 | 9.0 | 0.00 | 0.00 | 0.00 | 81 | 1008.6 |
| 20260506100849 | 61 | 353 | 3.0 | 8.0 | 0.00 | 0.00 | 0.00 | 80 | 1008.5 |
| 20260506100347 | 61 | 343 | 3.0 | 8.0 | 0.00 | 0.00 | 0.00 | 80 | 1008.3 |
| 20260506095845 | 61 | 21 | 5.0 | 10.0 | 0.00 | 0.00 | 0.00 | 80 | 1008.0 |
| 20260506095342 | 61 | 321 | 3.0 | 5.0 | 0.00 | 0.00 | 0.00 | 80 | 1008.3 |
| 20260506094838 | 61 | 314 | 2.0 | 6.0 | 0.00 | 0.00 | 0.00 | 80 | 1008.2 |
| 20260506094338 | 61 | 5 | 5.0 | 8.0 | 0.00 | 0.00 | 0.00 | 80 | 1007.9 |
| 20260506093835 | 62 | 12 | 2.0 | 6.0 | 0.00 | 0.00 | 0.00 | 80 | 1008.0 |
| 20260506093332 | 62 | 16 | 2.0 | 7.0 | 0.00 | 0.00 | 0.00 | 80 | 1008.2 |
| 20260506092830 | 62 | 326 | 3.0 | 7.0 | 0.00 | 0.00 | 0.00 | 80 | 1007.9 |
| 20260506092327 | 62 | 330 | 3.0 | 7.0 | 0.00 | 0.00 | 0.00 | 80 | 1007.7 |
| 20260506091824 | 62 | 5 | 4.0 | 9.0 | 0.00 | 0.00 | 0.00 | 81 | 1008.1 |
| 20260506091322 | 62 | 348 | 4.0 | 7.0 | 0.00 | 0.00 | 0.00 | 81 | 1008.2 |
| 20260506090819 | 62 | 14 | 5.0 | 7.0 | 0.00 | 0.00 | 0.00 | 81 | 1007.9 |
| 20260506090317 | 62 | 1 | 4.0 | 9.0 | 0.00 | 0.00 | 0.00 | 81 | 1007.9 |
| 20260506085813 | 62 | 0 | 4.0 | 5.0 | 0.00 | 0.00 | 0.00 | 81 | 1007.9 |
| 20260506085309 | 63 | 353 | 3.0 | 8.0 | 0.00 | 0.00 | 0.00 | 82 | 1007.9 |
| 20260506084806 | 63 | 7 | 0.0 | 5.0 | 0.00 | 0.00 | 0.00 | 81 | 1007.7 |
| 20260506084302 | 63 | 3 | 3.0 | 9.0 | 0.00 | 0.00 | 0.00 | 82 | 1007.5 |
| 20260506083759 | 63 | 4 | 1.0 | 6.0 | 0.00 | 0.00 | 0.00 | 82 | 1007.8 |
| 20260506083257 | 63 | 11 | 4.0 | 9.0 | 0.00 | 0.00 | 0.00 | 82 | 1007.7 |
| 20260506082754 | 63 | 358 | 4.0 | 9.0 | 0.00 | 0.00 | 0.00 | 82 | 1007.7 |
| 20260506082250 | 63 | 12 | 6.0 | 10.0 | 0.00 | 0.00 | 0.00 | 82 | 1007.4 |
| 20260506081747 | 63 | 4 | 1.0 | 7.0 | 0.00 | 0.00 | 0.00 | 82 | 1007.8 |
| 20260506081245 | 63 | 348 | 1.0 | 5.0 | 0.00 | 0.00 | 0.00 | 82 | 1007.7 |
| 20260506080743 | 63 | 4 | 4.0 | 8.0 | 0.00 | 0.00 | 0.00 | 82 | 1007.7 |
| 20260506080239 | 63 | 10 | 6.0 | 7.0 | 0.00 | 0.00 | 0.00 | 82 | 1007.2 |
| 20260506073223 | 63 | 4 | 5.0 | 11.0 | 0.00 | 0.00 | 0.00 | 82 | 1007.2 |
| 20260506072720 | 63 | 28 | 6.0 | 11.0 | 0.00 | 0.00 | 0.00 | 81 | 1007.3 |
| 20260506072217 | 64 | 28 | 3.0 | 9.0 | 0.00 | 0.00 | 0.00 | 81 | 1007.5 |
| 20260506071715 | 64 | 7 | 3.0 | 13.0 | 0.00 | 0.00 | 0.00 | 81 | 1007.3 |
| 20260506071213 | 64 | 24 | 4.0 | 12.0 | 0.00 | 0.00 | 0.00 | 81 | 1007.3 |
| 20260506070709 | 64 | 21 | 8.0 | 16.0 | 0.00 | 0.00 | 0.00 | 81 | 1007.3 |
| 20260506070206 | 64 | 36 | 4.0 | 12.0 | 0.00 | 0.00 | 0.00 | 81 | 1007.3 |
| 20260506062143 | 65 | 6 | 5.0 | 14.0 | 0.00 | 0.00 | 0.00 | 80 | 1007.1 |
| 20260506061639 | 65 | 347 | 5.0 | 14.0 | 0.00 | 0.00 | 0.00 | 79 | 1007.3 |
| 20260506061137 | 66 | 1 | 6.0 | 15.0 | 0.00 | 0.00 | 0.00 | 79 | 1007.2 |
| 20260506060635 | 66 | 10 | 5.0 | 11.0 | 0.00 | 0.00 | 0.00 | 79 | 1007.1 |
| 20260506060132 | 66 | 13 | 5.0 | 10.0 | 0.00 | 0.00 | 0.00 | 79 | 1007.3 |
| 20260506051104 | 68 | 1 | 8.0 | 15.0 | 0.00 | 0.00 | 0.00 | 77 | 1007.0 |
| 20260506050602 | 68 | 12 | 3.0 | 9.0 | 0.00 | 0.00 | 0.00 | 77 | 1007.0 |
| 20260506045052 | 69 | 0 | 5.0 | 8.0 | 0.00 | 0.00 | 0.00 | 76 | 1007.1 |
| 20260506044550 | 69 | 0 | 4.0 | 10.0 | 0.00 | 0.00 | 0.00 | 76 | 1006.9 |
| 20260506044046 | 69 | 347 | 4.0 | 11.0 | 0.00 | 0.00 | 0.00 | 75 | 1007.1 |
| 20260506043543 | 69 | 343 | 3.0 | 10.0 | 0.00 | 0.00 | 0.00 | 75 | 1007.0 |
| 20260506043042 | 70 | 4 | 4.0 | 8.0 | 0.00 | 0.00 | 0.00 | 74 | 1007.2 |
| 20260506042541 | 70 | 259 | 1.0 | 11.0 | 0.00 | 0.00 | 0.00 | 73 | 1007.0 |
| 20260506042038 | 70 | 353 | 4.0 | 10.0 | 0.00 | 0.00 | 0.00 | 73 | 1006.9 |
| 20260506041537 | 70 | 8 | 4.0 | 10.0 | 0.00 | 0.00 | 0.00 | 73 | 1007.0 |
| 20260506041033 | 70 | 354 | 6.0 | 14.0 | 0.00 | 0.00 | 0.00 | 74 | 1006.9 |
| 20260506040531 | 71 | 359 | 6.0 | 9.0 | 0.00 | 0.00 | 0.00 | 74 | 1006.8 |
| 20260506040027 | 71 | 359 | 4.0 | 11.0 | 0.00 | 0.00 | 0.00 | 74 | 1006.8 |
| 20260506035524 | 71 | 356 | 6.0 | 11.0 | 0.00 | 0.00 | 0.00 | 74 | 1006.5 |
| 20260506035021 | 71 | 1 | 5.0 | 17.0 | 0.00 | 0.00 | 0.00 | 74 | 1006.8 |
| 20260506034518 | 71 | 358 | 9.0 | 15.0 | 0.00 | 0.00 | 0.00 | 73 | 1006.5 |
| 20260506034015 | 72 | 12 | 4.0 | 11.0 | 0.00 | 0.00 | 0.00 | 73 | 1006.4 |
| 20260506033512 | 72 | 6 | 5.0 | 11.0 | 0.00 | 0.00 | 0.00 | 73 | 1006.4 |
| 20260506033009 | 72 | 348 | 5.0 | 13.0 | 0.00 | 0.00 | 0.00 | 73 | 1005.9 |
| 20260506032507 | 73 | 12 | 7.0 | 16.0 | 0.00 | 0.00 | 0.00 | 72 | 1005.9 |
| 20260506032003 | 73 | 28 | 3.0 | 13.0 | 0.00 | 0.00 | 0.00 | 73 | 1005.9 |
| 20260506031501 | 73 | 23 | 11.0 | 14.0 | 0.00 | 0.00 | 0.00 | 72 | 1005.7 |
| 20260506030958 | 73 | 11 | 4.0 | 10.0 | 0.00 | 0.00 | 0.00 | 73 | 1005.5 |
| 20260506030456 | 74 | 358 | 3.0 | 13.0 | 0.00 | 0.00 | 0.00 | 72 | 1005.5 |
| 20260506025952 | 74 | 0 | 6.0 | 11.0 | 0.00 | 0.00 | 0.00 | 72 | 1005.4 |
| 20260506025449 | 74 | 63 | 5.0 | 10.0 | 0.00 | 0.00 | 0.00 | 72 | 1005.7 |
| 20260506024946 | 75 | 3 | 5.0 | 14.0 | 0.00 | 0.00 | 0.00 | 71 | 1005.9 |
| 20260506024443 | 75 | 351 | 7.0 | 11.0 | 0.00 | 0.00 | 0.00 | 70 | 1005.5 |
| 20260506023938 | 75 | 5 | 6.0 | 13.0 | 0.00 | 0.00 | 0.00 | 70 | 1005.2 |
| 20260506023436 | 75 | 359 | 5.0 | 8.0 | 0.00 | 0.00 | 0.00 | 70 | 1004.9 |
| 20260506022932 | 76 | 357 | 5.0 | 13.0 | 0.00 | 0.00 | 0.00 | 69 | 1005.2 |
| 20260506022430 | 76 | 311 | 4.0 | 7.0 | 0.00 | 0.00 | 0.00 | 69 | 1005.0 |
| 20260506021928 | 77 | 348 | 7.0 | 14.0 | 0.00 | 0.00 | 0.00 | 68 | 1004.9 |
| 20260506021425 | 77 | 359 | 4.0 | 9.0 | 0.00 | 0.00 | 0.00 | 68 | 1004.8 |
| 20260506020922 | 77 | 356 | 4.0 | 8.0 | 0.00 | 0.00 | 0.00 | 68 | 1004.5 |
| 20260506020420 | 78 | 1 | 5.0 | 11.0 | 0.00 | 0.00 | 0.00 | 68 | 1004.4 |
| 20260506015916 | 78 | 356 | 5.0 | 9.0 | 0.00 | 0.00 | 0.00 | 67 | 1004.3 |
| 20260506015414 | 78 | 357 | 4.0 | 9.0 | 0.00 | 0.00 | 0.00 | 67 | 1004.0 |
| 20260506014911 | 78 | 15 | 4.0 | 7.0 | 0.00 | 0.00 | 0.00 | 67 | 1003.7 |
| 20260506014408 | 78 | 358 | 7.0 | 13.0 | 0.00 | 0.00 | 0.00 | 66 | 1003.9 |
| 20260506013904 | 79 | 19 | 5.0 | 12.0 | 0.00 | 0.00 | 0.00 | 66 | 1003.5 |
| 20260506013402 | 79 | 15 | 5.0 | 7.0 | 0.00 | 0.00 | 0.00 | 67 | 1003.8 |
| 20260506012858 | 79 | 354 | 2.0 | 6.0 | 0.00 | 0.00 | 0.00 | 66 | 1003.7 |
| 20260506012355 | 79 | 3 | 2.0 | 5.0 | 0.00 | 0.00 | 0.00 | 67 | 1003.3 |
| 20260506011852 | 79 | 356 | 2.0 | 8.0 | 0.00 | 0.00 | 0.00 | 65 | 1003.2 |
| 20260506011349 | 80 | 332 | 3.0 | 10.0 | 0.00 | 0.00 | 0.00 | 65 | 1003.3 |
| 20260506010846 | 80 | 332 | 1.0 | 4.0 | 0.00 | 0.00 | 0.00 | 65 | 1003.7 |
| 20260506010344 | 80 | 323 | 1.0 | 5.0 | 0.00 | 0.00 | 0.00 | 65 | 1003.4 |
| 20260506005841 | 80 | 294 | 2.0 | 5.0 | 0.00 | 0.00 | 0.00 | 66 | 1003.2 |
| 20260506005338 | 80 | 8 | 4.0 | 6.0 | 0.00 | 0.00 | 0.00 | 66 | 1003.0 |
| 20260506004833 | 80 | 7 | 5.0 | 8.0 | 0.00 | 0.00 | 0.00 | 66 | 1002.7 |
| 20260506004331 | 80 | 355 | 2.0 | 5.0 | 0.00 | 0.00 | 0.00 | 66 | 1002.9 |
| 20260506003827 | 80 | 322 | 3.0 | 5.0 | 0.00 | 0.00 | 0.00 | 66 | 1002.9 |
| 20260506003324 | 80 | 346 | 4.0 | 8.0 | 0.00 | 0.00 | 0.00 | 65 | 1002.9 |
| 20260506002820 | 81 | 330 | 3.0 | 8.0 | 0.00 | 0.00 | 0.00 | 65 | 1002.9 |
| 20260506002317 | 83 | 299 | 3.0 | 4.0 | 0.00 | 0.00 | 0.00 | 65 | 1002.8 |
| 20260506001812 | 84 | 309 | 2.0 | 9.0 | 0.00 | 0.00 | 0.00 | 64 | 1003.0 |
| 20260506001310 | 85 | 296 | 5.0 | 8.0 | 0.00 | 0.00 | 0.00 | 71 | 1002.7 |
| 20260506000807 | 85 | 311 | 3.0 | 3.0 | 0.00 | 0.00 | 0.00 | 76 | 1002.7 |
| 20260506000304 | 85 | 173 | 2.0 | 9.0 | 0.00 | 0.00 | 0.00 | 75 | 1002.6 |
| 20260505235801 | 85 | 156 | 6.0 | 7.0 | 0.00 | 0.00 | 0.00 | 75 | 1002.3 |
| 20260505235259 | 86 | 194 | 4.0 | 12.0 | 0.00 | 0.00 | 0.00 | 74 | 1002.2 |
| 20260505234755 | 86 | 192 | 1.0 | 8.0 | 0.00 | 0.00 | 0.00 | 74 | 1002.4 |
| 20260505234253 | 86 | 163 | 2.0 | 10.0 | 0.00 | 0.00 | 0.00 | 74 | 1002.2 |
| 20260505233749 | 86 | 128 | 4.0 | 13.0 | 0.00 | 0.00 | 0.00 | 73 | 1002.3 |
| 20260505233247 | 86 | 171 | 4.0 | 9.0 | 0.00 | 0.00 | 0.00 | 73 | 1002.0 |
| 20260505232745 | 86 | 180 | 5.0 | 12.0 | 0.00 | 0.00 | 0.00 | 72 | 1002.2 |
| 20260505232242 | 86 | 163 | 5.0 | 13.0 | 0.00 | 0.00 | 0.00 | 72 | 1001.9 |
| 20260505231738 | 87 | 200 | 3.0 | 12.0 | 0.00 | 0.00 | 0.00 | 71 | 1001.9 |
| 20260505231237 | 87 | 176 | 10.0 | 15.0 | 0.00 | 0.00 | 0.00 | 72 | 1002.0 |
| 20260505230735 | 87 | 166 | 7.0 | 16.0 | 0.00 | 0.00 | 0.00 | 71 | 1002.0 |
| 20260505230231 | 88 | 152 | 9.0 | 10.0 | 0.00 | 0.00 | 0.00 | 70 | 1001.7 |
| 20260505225728 | 89 | 151 | 2.0 | 10.0 | 0.00 | 0.00 | 0.00 | 69 | 1001.9 |
| 20260505225225 | 89 | 176 | 3.0 | 5.0 | 0.00 | 0.00 | 0.00 | 63 | 1001.9 |
| 20260505224720 | 89 | 166 | 4.0 | 9.0 | 0.00 | 0.00 | 0.00 | 62 | 1001.9 |
| 20260505224218 | 91 | 169 | 5.0 | 8.0 | 0.00 | 0.00 | 0.00 | 59 | 1001.8 |
| 20260505223716 | 90 | 167 | 2.0 | 7.0 | 0.00 | 0.00 | 0.00 | 59 | 1001.7 |
| 20260505223212 | 90 | 199 | 5.0 | 8.0 | 0.00 | 0.00 | 0.00 | 56 | 1001.7 |
| 20260505222708 | 90 | 217 | 5.0 | 12.0 | 0.00 | 0.00 | 0.00 | 56 | 1001.7 |
| 20260505222203 | 91 | 213 | 4.0 | 9.0 | 0.00 | 0.00 | 0.00 | 58 | 1001.5 |
| 20260505221702 | 91 | 183 | 2.0 | 7.0 | 0.00 | 0.00 | 0.00 | 59 | 1001.6 |
| 20260505221158 | 90 | 181 | 4.0 | 10.0 | 0.00 | 0.00 | 0.00 | 58 | 1001.6 |
| 20260505220655 | 90 | 172 | 2.0 | 9.0 | 0.00 | 0.00 | 0.00 | 59 | 1001.8 |
| 20260505220153 | 89 | 183 | 5.0 | 11.0 | 0.00 | 0.00 | 0.00 | 58 | 1001.7 |
| 20260505215650 | 91 | 178 | 2.0 | 7.0 | 0.00 | 0.00 | 0.00 | 58 | 1001.7 |
| 20260505215148 | 92 | 184 | 4.0 | 9.0 | 0.00 | 0.00 | 0.00 | 58 | 1001.7 |
| 20260505214646 | 91 | 169 | 6.0 | 10.0 | 0.00 | 0.00 | 0.00 | 57 | 1001.6 |
| 20260505214143 | 91 | 259 | 0.0 | 9.0 | 0.00 | 0.00 | 0.00 | 58 | 1001.7 |
| 20260505213640 | 92 | 208 | 4.0 | 9.0 | 0.00 | 0.00 | 0.00 | 55 | 1001.9 |
| 20260505213137 | 93 | 254 | 0.0 | 7.0 | 0.00 | 0.00 | 0.00 | 56 | 1001.5 |
| 20260505212632 | 91 | 271 | 3.0 | 10.0 | 0.00 | 0.00 | 0.00 | 57 | 1001.8 |